Date String (YYYY-MM-DD hh:mm:ss) UTC,Instrument flags,absolute air pressure of the measurement (hPa),sample flow rate (lpm),inlet stack bypass flow (lpm),air temperature of the measurement (°C),ambient temperature measured by the external sensor (°C),aerosol sample conditioner tube jacket temperature (°C),OPC LED temperature (°C),internal box temperature (°C),relative humidity of the measurement (%),span deviation,mass concentration of particles derived from Lorenz-Mie calculation of OPC scattering (μg/m³),mass concentration of particles derived from Lorenz-Mie calculation of OPC scattering (μg/m³),mass concentration of particles derived from Lorenz-Mie calculation of OPC scattering (μg/m³)
DateTimeUTC,F1_M11,P_M11,Q1_M11,Q2_M11,T1_M11,T2_M11,T3_M11,T4_M11,T5_M11,U1_M11,ZSPAN_M11,X0_M11,X2_M11,X1_M11
2024-05-10 02:00:00,SystemResetWarning,0835.3,5.00,000.00,025.3,024.8,000.0,033.4,027.1,022.2,0000.0,0004.00,0002.68,0002.28
2024-05-10 02:01:00,SystemResetWarning,0835.3,5.00,000.00,025.3,024.8,000.0,033.4,027.1,022.2,0000.0,0004.47,0002.72,0002.31
2024-05-10 02:02:00,SystemResetWarning,0835.3,5.01,000.00,025.3,024.8,000.0,033.4,027.1,022.2,0000.0,0004.52,0002.75,0002.34
2024-05-10 02:03:00,SystemResetWarning,0835.3,5.00,000.00,025.3,024.8,000.0,033.4,027.1,022.2,0000.0,0004.52,0002.77,0002.36
2024-05-10 02:04:00,SystemResetWarning,0835.2,5.00,000.00,025.4,024.8,000.0,033.5,027.1,022.4,0000.0,0004.35,0002.75,0002.39
2024-05-10 02:05:00,SystemResetWarning,0835.3,4.99,000.00,025.4,024.8,000.0,033.5,027.1,022.5,0000.0,0004.46,0002.79,0002.42
2024-05-10 02:06:00,SystemResetWarning,0835.3,4.99,000.00,025.4,024.9,000.0,033.5,027.1,022.3,0000.0,0004.48,0002.79,0002.43
2024-05-10 02:07:00,SystemResetWarning,0835.4,5.00,000.00,025.4,024.9,000.0,033.5,027.2,022.3,0000.0,0004.32,0002.75,0002.43
2024-05-10 02:08:00,SystemResetWarning,0835.5,5.00,000.00,025.4,024.9,000.0,033.5,027.1,022.4,0000.0,0004.18,0002.71,0002.42
2024-05-10 02:09:00,SystemResetWarning,0835.4,5.01,000.00,025.4,024.9,000.0,033.5,027.2,022.5,0000.0,0004.13,0002.71,0002.42
2024-05-10 02:10:00,SystemResetWarning,0835.4,5.00,000.00,025.4,024.9,000.0,033.5,027.2,022.5,0000.0,0003.96,0002.68,0002.42
2024-05-10 02:11:00,SystemResetWarning,0835.4,4.99,000.00,025.4,024.9,000.0,033.5,027.2,022.3,0000.0,0003.48,0002.62,0002.40
2024-05-10 02:12:00,SystemResetWarning,0835.5,5.00,000.00,025.5,024.9,000.0,033.6,027.2,022.4,0000.0,0002.99,0002.56,0002.35
2024-05-10 02:13:00,SystemResetWarning,0835.5,5.00,000.00,025.5,024.9,000.0,033.6,027.2,022.3,0000.0,0002.95,0002.52,0002.30
2024-05-10 02:14:00,SystemResetWarning,0835.5,5.01,000.00,025.5,024.9,000.0,033.6,027.2,022.4,0000.0,0002.92,0002.47,0002.26
2024-05-10 02:15:00,SystemResetWarning,0835.5,5.00,000.00,025.5,025.0,000.0,033.6,027.3,022.7,0000.0,0003.01,0002.48,0002.22
2024-05-10 02:16:00,SystemResetWarning,0835.5,4.99,000.00,025.5,025.0,000.0,033.6,027.3,022.2,0000.0,0002.95,0002.44,0002.17
2024-05-10 02:17:00,SystemResetWarning,0835.5,5.00,000.00,025.5,025.0,000.0,033.7,027.3,021.9,0000.0,0002.99,0002.42,0002.14
2024-05-10 02:18:00,SystemResetWarning,0835.5,5.00,000.00,025.5,025.0,000.0,033.7,027.3,021.5,0000.0,0002.97,0002.40,0002.13
2024-05-10 02:19:00,SystemResetWarning,0835.5,5.00,000.00,025.5,025.0,000.0,033.7,027.3,021.3,0000.0,0003.06,0002.41,0002.11
2024-05-10 02:20:00,SystemResetWarning,0835.5,5.00,000.00,025.5,025.0,000.0,033.7,027.3,021.2,0000.0,0003.04,0002.38,0002.09
2024-05-10 02:21:00,SystemResetWarning,0835.5,5.00,000.00,025.6,025.0,000.0,033.7,027.3,021.3,0000.0,0003.13,0002.39,0002.08
2024-05-10 02:22:00,SystemResetWarning,0835.5,5.00,000.00,025.6,025.0,000.0,033.7,027.3,021.2,0000.0,0003.22,0002.41,0002.07
2024-05-10 02:23:00,SystemResetWarning,0835.6,5.00,000.00,025.6,025.0,000.0,033.7,027.3,021.1,0000.0,0003.16,0002.39,0002.06
2024-05-10 02:24:00,SystemResetWarning,0835.5,5.00,000.00,025.6,025.0,000.0,033.7,027.3,021.2,0000.0,0003.18,0002.37,0002.04
2024-05-10 02:25:00,SystemResetWarning,0835.5,5.00,000.00,025.6,025.0,000.0,033.7,027.4,021.2,0000.0,0003.29,0002.39,0002.03
2024-05-10 02:26:00,SystemResetWarning,0835.5,5.00,000.00,025.6,025.0,000.0,033.7,027.3,021.4,0000.0,0003.19,0002.33,0002.01
2024-05-10 02:27:00,SystemResetWarning,0835.5,5.00,000.00,025.6,025.0,000.0,033.7,027.3,021.4,0000.0,0003.42,0002.29,0001.97
2024-05-10 02:28:00,SystemResetWarning,0835.5,5.00,000.00,025.6,025.0,000.0,033.8,027.3,021.4,0000.0,0003.29,0002.23,0001.94
2024-05-10 02:29:00,SystemResetWarning,0835.5,4.99,000.00,025.6,025.0,000.0,033.8,027.3,021.5,0000.0,0003.31,0002.21,0001.90
2024-05-10 02:30:00,SystemResetWarning,0835.5,5.00,000.00,025.6,025.0,000.0,033.8,027.3,021.6,0000.0,0003.27,0002.17,0001.86
2024-05-10 02:31:00,SystemResetWarning,0835.5,5.01,000.00,025.6,025.0,000.0,033.8,027.3,021.7,0000.0,0003.13,0002.10,0001.81
2024-05-10 02:32:00,SystemResetWarning,0835.5,5.01,000.00,025.6,025.0,000.0,033.8,027.3,021.6,0000.0,0003.10,0002.04,0001.76
2024-05-10 02:33:00,SystemResetWarning,0835.5,4.99,000.00,025.6,025.0,000.0,033.8,027.3,021.5,0000.0,0003.01,0001.98,0001.71
2024-05-10 02:34:00,SystemResetWarning,0835.5,5.00,000.00,025.6,025.0,000.0,033.8,027.3,021.4,0000.0,0003.02,0001.95,0001.67
2024-05-10 02:35:00,SystemResetWarning,0835.5,5.00,000.00,025.6,025.0,000.0,033.8,027.4,021.1,0000.0,0002.96,0001.92,0001.64
2024-05-10 02:36:00,SystemResetWarning,0835.6,5.00,000.00,025.6,025.0,000.0,033.8,027.4,021.3,0000.0,0002.89,0001.87,0001.60
2024-05-10 02:37:00,SystemResetWarning,0835.6,4.99,000.00,025.6,025.0,000.0,033.8,027.3,021.4,0000.0,0003.00,0001.86,0001.56
2024-05-10 02:38:00,SystemResetWarning,0835.6,5.00,000.00,025.6,025.1,000.0,033.8,027.4,021.2,0000.0,0002.97,0001.87,0001.55
2024-05-10 02:39:00,SystemResetWarning,0835.7,5.00,000.00,025.7,025.1,000.0,033.8,027.4,021.2,0000.0,0002.85,0001.88,0001.53
2024-05-10 02:40:00,SystemResetWarning,0835.6,5.01,000.00,025.7,025.1,000.0,033.8,027.4,021.3,0000.0,0002.95,0001.89,0001.51
2024-05-10 02:41:00,SystemResetWarning,0835.7,5.01,000.00,025.7,025.1,000.0,033.8,027.4,021.2,0000.0,0002.87,0001.85,0001.49
2024-05-10 02:42:00,SystemResetWarning,0835.8,5.00,000.00,025.7,025.1,000.0,033.9,027.4,021.2,0000.0,0002.86,0001.84,0001.48
2024-05-10 02:43:00,SystemResetWarning,0835.8,4.99,000.00,025.7,025.1,000.0,033.9,027.4,021.1,0000.0,0002.88,0001.83,0001.46
2024-05-10 02:44:00,SystemResetWarning,0835.8,4.99,000.00,025.7,025.1,000.0,033.9,027.4,021.1,0000.0,0002.95,0001.83,0001.45
2024-05-10 02:45:00,SystemResetWarning,0835.8,5.00,000.00,025.7,025.1,000.0,033.9,027.5,021.1,0000.0,0003.09,0001.80,0001.43
2024-05-10 02:46:00,SystemResetWarning,0835.8,5.01,000.00,025.7,025.1,000.0,033.9,027.5,021.3,0000.0,0003.62,0001.82,0001.42
2024-05-10 02:47:00,SystemResetWarning,0835.9,5.01,000.00,025.7,025.2,000.0,033.9,027.5,021.2,0000.0,0003.59,0001.80,0001.41
2024-05-10 02:48:00,SystemResetWarning,0835.9,5.01,000.00,025.7,025.2,000.0,033.9,027.5,021.2,0000.0,0003.55,0001.81,0001.42
2024-05-10 02:49:00,SystemResetWarning,0835.9,5.00,000.00,025.7,025.2,000.0,033.9,027.5,021.0,0000.0,0003.54,0001.82,0001.42
2024-05-10 02:50:00,SystemResetWarning,0835.9,4.99,000.00,025.7,025.2,000.0,033.9,027.5,021.2,0000.0,0003.50,0001.80,0001.43
2024-05-10 02:51:00,SystemResetWarning,0836.0,5.00,000.00,025.7,025.2,000.0,033.9,027.5,021.5,0000.0,0004.21,0001.81,0001.45
2024-05-10 02:52:00,SystemResetWarning,0836.0,4.99,000.00,025.8,025.2,000.0,034.0,027.5,021.7,0000.0,0005.12,0001.85,0001.46
2024-05-10 02:53:00,SystemResetWarning,0836.1,5.01,000.00,025.8,025.2,000.0,034.0,027.5,021.4,0000.0,0005.86,0001.89,0001.47
2024-05-10 02:54:00,SystemResetWarning,0836.1,5.01,000.00,025.8,025.2,000.0,034.0,027.5,021.2,0000.0,0006.84,0001.93,0001.48
2024-05-10 02:55:00,SystemResetWarning,0836.1,5.01,000.00,025.8,025.2,000.0,034.0,027.5,021.3,0000.0,0007.26,0001.93,0001.49
2024-05-10 02:56:00,SystemResetWarning,0836.1,5.00,000.00,025.8,025.2,000.0,034.0,027.5,021.1,0000.0,0007.23,0001.98,0001.51
2024-05-10 02:57:00,SystemResetWarning,0836.1,4.99,000.00,025.8,025.2,000.0,034.0,027.6,021.3,0000.0,0006.77,0002.00,0001.55
2024-05-10 02:58:00,SystemResetWarning,0836.1,4.99,000.00,025.8,025.2,000.0,034.0,027.6,021.2,0000.0,0006.87,0002.05,0001.57
2024-05-10 02:59:00,SystemResetWarning,0836.1,5.01,000.00,025.8,025.3,000.0,034.0,027.6,021.2,0000.0,0006.94,0002.09,0001.57
